Date String (YYYY-MM-DD hh:mm:ss) UTC,Instrument flags,absolute air pressure of the measurement (hPa),sample flow rate (lpm),inlet stack bypass flow (lpm),air temperature of the measurement (°C),ambient temperature measured by the external sensor (°C),aerosol sample conditioner tube jacket temperature (°C),OPC LED temperature (°C),internal box temperature (°C),relative humidity of the measurement (%),span deviation,mass concentration of particles derived from Lorenz-Mie calculation of OPC scattering (μg/m³),mass concentration of particles derived from Lorenz-Mie calculation of OPC scattering (μg/m³),mass concentration of particles derived from Lorenz-Mie calculation of OPC scattering (μg/m³)
DateTimeUTC,F1_M11,P_M11,Q1_M11,Q2_M11,T1_M11,T2_M11,T3_M11,T4_M11,T5_M11,U1_M11,ZSPAN_M11,X2_M11,X0_M11,X1_M11
2023-06-14 07:00:00,SystemResetWarning,0828.2,5.00,000.00,029.9,028.2,000.0,038.5,031.4,21.2,0000.0,0002.96,0004.10,0002.58
2023-06-14 07:01:00,SystemResetWarning,0828.2,4.99,000.00,029.9,028.2,000.0,038.5,031.4,20.9,0000.0,0002.96,0004.19,0002.55
2023-06-14 07:02:00,SystemResetWarning,0828.1,5.01,000.00,029.9,028.3,000.0,038.5,031.4,20.8,0000.0,0002.92,0004.14,0002.54
2023-06-14 07:03:00,SystemResetWarning,0828.1,5.01,000.00,029.9,028.3,000.0,038.5,031.4,21.0,0000.0,0002.92,0004.14,0002.54
2023-06-14 07:04:00,SystemResetWarning,0828.1,5.01,000.00,029.9,028.3,000.0,038.5,031.4,21.3,0000.0,0002.89,0003.99,0002.52
2023-06-14 07:05:00,SystemResetWarning,0828.1,5.00,000.00,029.9,028.3,000.0,038.5,031.4,20.8,0000.0,0002.93,0004.28,0002.52
2023-06-14 07:06:00,SystemResetWarning,0828.1,4.99,000.00,030.0,028.3,000.0,038.5,031.4,20.1,0000.0,0002.95,0004.29,0002.53
2023-06-14 07:07:00,SystemResetWarning,0828.1,4.99,000.00,030.0,028.3,000.0,038.5,031.4,19.9,0000.0,0002.97,0004.34,0002.53
2023-06-14 07:08:00,SystemResetWarning,0828.1,5.00,000.00,030.0,028.3,000.0,038.5,031.4,19.7,0000.0,0002.99,0004.36,0002.52
2023-06-14 07:09:00,SystemResetWarning,0828.1,5.00,000.00,030.0,028.3,000.0,038.5,031.4,19.9,0000.0,0002.94,0004.14,0002.53
2023-06-14 07:10:00,SystemResetWarning,0828.1,5.00,000.00,029.9,028.2,000.0,038.5,031.4,20.1,0000.0,0002.93,0004.13,0002.50
2023-06-14 07:11:00,SystemResetWarning,0828.1,5.01,000.00,029.9,028.2,000.0,038.5,031.4,20.1,0000.0,0002.90,0004.03,0002.49
2023-06-14 07:12:00,SystemResetWarning,0828.2,5.01,000.00,030.0,028.2,000.0,038.5,031.4,21.0,0000.0,0002.88,0004.10,0002.48
2023-06-14 07:13:00,SystemResetWarning,0828.1,5.00,000.00,030.0,028.2,000.0,038.5,031.4,21.0,0000.0,0002.84,0004.15,0002.46
2023-06-14 07:14:00,SystemResetWarning,0828.1,4.99,000.00,030.0,028.2,000.0,038.5,031.4,20.6,0000.0,0002.81,0004.14,0002.44
2023-06-14 07:15:00,SystemResetWarning,0828.0,4.99,000.00,029.9,028.2,000.0,038.5,031.4,20.3,0000.0,0002.80,0004.27,0002.44
2023-06-14 07:16:00,SystemResetWarning,0828.1,4.99,000.00,029.9,028.2,000.0,038.5,031.4,20.1,0000.0,0002.74,0004.08,0002.43
2023-06-14 07:17:00,SystemResetWarning,0828.1,5.01,000.00,029.9,028.2,000.0,038.5,031.3,20.3,0000.0,0002.74,0004.13,0002.40
2023-06-14 07:18:00,SystemResetWarning,0828.1,5.00,000.00,029.9,028.2,000.0,038.5,031.3,20.3,0000.0,0002.75,0004.26,0002.39
2023-06-14 07:19:00,SystemResetWarning,0828.1,5.00,000.00,029.9,028.2,000.0,038.5,031.3,20.4,0000.0,0002.74,0004.24,0002.38
2023-06-14 07:20:00,SystemResetWarning,0828.1,5.01,000.00,029.9,028.2,000.0,038.5,031.3,20.4,0000.0,0002.74,0004.30,0002.37
2023-06-14 07:21:00,SystemResetWarning,0828.1,5.00,000.00,029.9,028.2,000.0,038.5,031.4,20.6,0000.0,0002.74,0004.32,0002.36
2023-06-14 07:22:00,SystemResetWarning,0828.1,5.01,000.00,029.9,028.2,000.0,038.5,031.4,20.5,0000.0,0002.73,0004.37,0002.33
2023-06-14 07:23:00,SystemResetWarning,0828.1,5.00,000.00,029.9,028.2,000.0,038.5,031.4,20.6,0000.0,0002.69,0004.24,0002.30
2023-06-14 07:24:00,SystemResetWarning,0828.1,4.99,000.00,029.9,028.2,000.0,038.5,031.4,20.6,0000.0,0002.73,0004.32,0002.28
2023-06-14 07:25:00,SystemResetWarning,0828.1,4.99,000.00,029.9,028.2,000.0,038.5,031.4,21.0,0000.0,0002.75,0004.45,0002.26
2023-06-14 07:26:00,SystemResetWarning,0828.1,5.00,000.00,029.9,028.2,000.0,038.5,031.4,20.9,0000.0,0002.71,0004.30,0002.22
2023-06-14 07:27:00,SystemResetWarning,0828.1,5.01,000.00,029.9,028.2,000.0,038.5,031.4,21.1,0000.0,0002.70,0004.24,0002.18
2023-06-14 07:28:00,SystemResetWarning,0828.1,5.01,000.00,029.9,028.2,000.0,038.5,031.4,21.0,0000.0,0002.73,0004.37,0002.14
2023-06-14 07:29:00,SystemResetWarning,0828.1,5.00,000.00,029.9,028.2,000.0,038.5,031.4,21.2,0000.0,0002.65,0004.20,0002.11
2023-06-14 07:30:00,SystemResetWarning,0828.1,5.00,000.00,029.9,028.2,000.0,038.5,031.4,21.1,0000.0,0002.60,0004.21,0002.06
2023-06-14 07:31:00,SystemResetWarning,0828.1,4.99,000.00,029.9,028.2,000.0,038.5,031.3,20.7,0000.0,0002.54,0004.10,0002.02
2023-06-14 07:32:00,SystemResetWarning,0828.0,5.00,000.00,029.9,028.2,000.0,038.5,031.3,20.9,0000.0,0002.52,0004.08,0001.99
2023-06-14 07:33:00,SystemResetWarning,0828.1,5.01,000.00,029.9,028.2,000.0,038.5,031.3,20.5,0000.0,0002.50,0004.01,0001.98
2023-06-14 07:34:00,SystemResetWarning,0828.1,5.01,000.00,029.9,028.2,000.0,038.5,031.3,20.1,0000.0,0002.51,0004.02,0001.97
2023-06-14 07:35:00,SystemResetWarning,0828.1,5.01,000.00,029.9,028.2,000.0,038.5,031.3,20.0,0000.0,0002.43,0003.70,0001.94
2023-06-14 07:36:00,SystemResetWarning,0828.1,5.00,000.00,029.8,028.2,000.0,038.5,031.3,20.6,0000.0,0002.41,0003.64,0001.92
2023-06-14 07:37:00,SystemResetWarning,0828.1,4.98,000.00,029.9,028.2,000.0,038.5,031.3,21.0,0000.0,0002.43,0003.69,0001.92
2023-06-14 07:38:00,SystemResetWarning,0828.1,5.00,000.00,029.9,028.2,000.0,038.5,031.3,21.6,0000.0,0002.44,0003.72,0001.93
2023-06-14 07:39:00,SystemResetWarning,0828.1,5.00,000.00,029.9,028.2,000.0,038.4,031.3,22.1,0000.0,0002.43,0003.58,0001.96
2023-06-14 07:40:00,SystemResetWarning,0828.1,5.00,000.00,029.9,028.2,000.0,038.4,031.3,21.4,0000.0,0002.46,0003.79,0001.96
2023-06-14 07:41:00,SystemResetWarning,0828.2,5.00,000.00,029.9,028.2,000.0,038.4,031.3,20.8,0000.0,0002.47,0003.82,0001.97
2023-06-14 07:42:00,SystemResetWarning,0828.2,5.01,000.00,029.9,028.2,000.0,038.4,031.3,20.5,0000.0,0002.48,0003.86,0001.96
2023-06-14 07:43:00,SystemResetWarning,0828.2,5.00,000.00,029.9,028.2,000.0,038.5,031.3,20.4,0000.0,0002.47,0003.94,0001.96
2023-06-14 07:44:00,SystemResetWarning,0828.2,5.01,000.00,029.9,028.2,000.0,038.5,031.3,20.4,0000.0,0002.53,0004.42,0001.97
2023-06-14 07:45:00,SystemResetWarning,0828.2,5.00,000.00,029.9,028.2,000.0,038.5,031.3,20.5,0000.0,0002.55,0004.47,0001.98
2023-06-14 07:46:00,SystemResetWarning,0828.2,5.00,000.00,029.9,028.2,000.0,038.5,031.3,20.9,0000.0,0002.58,0004.55,0002.00
2023-06-14 07:47:00,SystemResetWarning,0828.2,4.99,000.00,029.9,028.2,000.0,038.5,031.3,21.9,0000.0,0002.59,0004.57,0002.02
2023-06-14 07:48:00,SystemResetWarning,0828.2,5.00,000.00,029.9,028.2,000.0,038.5,031.4,21.1,0000.0,0002.60,0004.96,0002.03
2023-06-14 07:49:00,SystemResetWarning,0828.2,5.00,000.00,029.9,028.2,000.0,038.5,031.4,20.2,0000.0,0002.58,0005.30,0002.00
2023-06-14 07:50:00,SystemResetWarning,0828.2,5.00,000.00,029.9,028.2,000.0,038.5,031.3,19.6,0000.0,0002.50,0005.15,0001.96
2023-06-14 07:51:00,SystemResetWarning,0828.2,5.00,000.00,029.9,028.2,000.0,038.5,031.4,19.4,0000.0,0002.42,0004.78,0001.93
2023-06-14 07:52:00,SystemResetWarning,0828.2,5.01,000.00,029.9,028.2,000.0,038.4,031.4,19.3,0000.0,0002.38,0004.73,0001.90
2023-06-14 07:53:00,SystemResetWarning,0828.2,5.01,000.00,029.9,028.2,000.0,038.5,031.3,19.3,0000.0,0002.38,0004.75,0001.88
2023-06-14 07:54:00,SystemResetWarning,0828.1,5.01,000.00,029.9,028.2,000.0,038.5,031.3,19.3,0000.0,0002.37,0004.63,0001.86
2023-06-14 07:55:00,SystemResetWarning,0828.1,4.99,000.00,029.9,028.2,000.0,038.5,031.3,19.3,0000.0,0002.28,0004.08,0001.84
2023-06-14 07:56:00,SystemResetWarning,0828.1,4.98,000.00,029.9,028.2,000.0,038.5,031.3,18.9,0000.0,0002.24,0004.08,0001.80
2023-06-14 07:57:00,SystemResetWarning,0828.1,4.99,000.00,029.9,028.2,000.0,038.5,031.3,18.6,0000.0,0002.17,0003.94,0001.76
2023-06-14 07:58:00,SystemResetWarning,0828.1,5.00,000.00,029.9,028.2,000.0,038.4,031.3,18.7,0000.0,0002.14,0004.08,0001.71
2023-06-14 07:59:00,SystemResetWarning,0828.1,5.00,000.00,029.9,028.2,000.0,038.4,031.3,18.9,0000.0,0002.13,0003.83,0001.69
